Terug naar catalogus

SSB

ActiefWetenschapLEO
NORAD 13845·PAYLOAD·🇺🇸 United States

Gelanceerd Feb 9, 1983 vanaf Vandenberg Space Force Base

Loading…

Volgende Passages (komende 24 uur)

TLE

VersSource: Space-Track

Epoch: Sep 14, 2026, 15:25 UTC

1 13845U 83008F   26257.64267504  .00001646  00000-0  25870-3 0  9998
2 13845  63.3101 131.3887 0698992 137.3215 228.4365 13.78830874357232

Volg SSB in realtime met AllMySat

Download on the App Store